Voltar ao catálogo

FENGYUN 1C DEB

AtivoPO
NORAD 30350·DEBRIS·🇨🇳 China

Lançado May 10, 1999 de Taiyuan Satellite Launch Center

Loading…

Próximas Passagens (próximas 24 horas)

TLE

AtualizadoSource: Space-Track

Época: Sep 14, 2026, 08:48 UTC

1 30350U 99025ABM 26257.36677464  .00000691  00000-0  55248-3 0  9994
2 30350  98.1239  42.9614 0217400 268.3521 118.3184 13.83310323987920

Acompanhe FENGYUN 1C DEB em tempo real com AllMySat

Download on the App Store